This demonstration page uses our WeatherBlox Daily Observations layout. Learn more.

Left ArrowRight Arrow

38.80484, -77.04692

Hourly Observations for January 25, 2022

Temp ( °F °C ) Dew Point ( °F °C ) Humidity (%) Winds ( mph kmh ) Pressure ( in mb ) Visibility ( mi km ) Precip ( " mm )
12:52 am 00:52 Partly Cloudy 37 2.8 25 -3.9 62 62 SSW 8 13 29.82 1010 10 16 0.00 0.00
1:52 am 01:52 Mostly Clear 34 1.1 26 -3.3 73 73 S 8 13 29.83 1010 10 16 0.00 0.00
2:52 am 02:52 Clear 35 1.7 25 -3.9 67 67 S 6 9 29.83 1010 10 16 0.00 0.00
3:52 am 03:52 Mostly Cloudy 36 2.2 24 -4.4 62 62 S 3 6 29.83 1010 10 16 0.00 0.00
4:52 am 04:52 Cloudy 35 1.7 26 -3.3 70 70 Calm 29.83 1010 10 16 0.00 0.00
5:52 am 05:52 Cloudy 34 1.1 26 -3.3 73 73 Calm 29.86 1011 10 16 0.00 0.00
6:52 am 06:52 Cloudy 37 2.8 26 -3.3 65 65 Calm 29.89 1012 10 16 0.00 0.00
7:52 am 07:52 Cloudy 34 1.1 28 -2.2 79 79 Calm 29.91 1013 10 16 0.00 0.00
8:52 am 08:52 Cloudy 38 3.3 29 -1.7 70 70 N 6 9 29.95 1014 10 16 0.00 0.00
9:52 am 09:52 Cloudy 40 4.4 28 -2.2 63 63 Calm 29.97 1015 10 16 0.00 0.00
10:52 am 10:52 Cloudy 43 6.1 27 -2.8 53 53 NE 6 9 29.98 1015 10 16 0.00 0.00
11:52 am 11:52 Cloudy 45 7.2 28 -2.2 52 52 NE 3 6 29.98 1015 10 16 0.00 0.00
12:52 pm 12:52 Cloudy 48 8.9 29 -1.7 48 48 NW 13 20 29.97 1015 10 16 0.00 0.00
1:52 pm 13:52 Cloudy 49 9.4 29 -1.7 46 46 NNW 13 20 29.98 1015 10 16 0.00 0.00
2:52 pm 14:52 Mostly Cloudy 48 8.9 28 -2.2 46 46 NNW 14 22 30.00 1016 10 16 0.00 0.00
3:52 pm 15:52 Mostly Cloudy 43 6.1 25 -3.9 49 49 NW 15 24 30.04 1017 10 16 0.00 0.00
4:52 pm 16:52 Mostly Cloudy 40 4.4 23 -5 51 51 NNW 18 30 30.08 1019 10 16 0.00 0.00
5:52 pm 17:52 Cloudy 37 2.8 20 -6.7 50 50 NNW 18 30 30.12 1020 10 16 0.00 0.00
6:52 pm 18:52 Cloudy 35 1.7 18 -7.8 50 50 NNW 22 35 30.15 1021 10 16 0.00 0.00
7:52 pm 19:52 Cloudy 34 1.1 16 -8.9 48 48 NNW 17 28 30.17 1022 10 16 0.00 0.00
8:52 pm 20:52 Cloudy 34 1.1 14 -10 44 44 NNW 13 20 30.19 1023 10 16 0.00 0.00
9:52 pm 21:52 Cloudy 32 0 12 -11.1 43 43 NNW 16 26 30.21 1023 10 16 0.00 0.00
10:52 pm 22:52 Cloudy 31 -0.6 12 -11.1 45 45 N 17 28 30.23 1024 10 16 0.00 0.00
11:52 pm 23:52 Cloudy 30 -1.1 11 -11.7 45 45 NNW 14 22 30.24 1024 10 16 0.00 0.00

Powered by AerisWeather